THORAD AGENA D DEB, 4757

Orbit data source: Space-Track

THORAD AGENA D DEB, 4757 is space debris in SSO originally from a launch on Wed, 08 Apr 1970 UTC launched from the Air Force Western Test Range (AFWTR). Debris objects in space refer to the collection of defunct objects orbiting the Earth. Examples of debris include non-operational satellites, rocket bodies, and fragments generated from explosions, collisions, or faulty payload assembly.

Loading next visibility...
Identifier
4757, 1970-025DF
Orbit
SSO
Country
Flag of USUS
Related business
Manufacturer
Unknown
Mission
Spacecraft
Bus & Motor
Unknown
Mass
Unknown
Launch date (UTC)
1970-04-08 (56 years ago)
Launch vehicle
Unknown
Launch site
Air Force Western Test Range (AFWTR)
Object type
Payload
Rocket body
Debris
Shape & HBR
Unknown shape, 0.1 m
Radar Cross Section
Small (<0.1 m²)

Expand to show TLE details & history
Last TLE update: 13 hours ago

TLE from 13 hours ago
0 THORAD AGENA D DEB
1 04757U 70025DF  25300.17520418  .00000576  00000-0  77816-3 0  9995
2 04757  99.4094 174.3636 0013490 326.5676  33.4614 13.63891794749004
Epoch: 2025-10-27T04:12Z
TLE epoch observation values (Epoch: 2025-10-27T04:12:17.641Z)
Latitude
-0.00003°
Longitude
75.50928°
Altitude
1,016.071 km
Speed
7.348 km/s
True Right ascension
11h 37m 27s
True Declination
0° 00' 00"
Sunlit
Object was in daylight at epoch
Visualization orbit readout
Latitude
Unknown
Longitude
Unknown
Altitude
Unknown
Speed
Unknown
Apparent Right ascension
Unknown
Apparent Declination
Unknown
Sunlit
N/A
Visualization observer readout
Local Sidereal Time
12:20:34
Azimuth
Unknown
Elevation
Unknown
Doppler factor
Unknown
Orbital elements
Apogee altitude
1,028.829 km
Perigee altitude
1,008.872 km
Semi-major axis
7,396.987 km
Eccentricity
0.00135
Inclination
99.4094°
RAAN
174.3636°
Arg. of periapsis
326.5676°
True anomaly
33.54675°
Mean anomaly
33.4614°
Eccentric anomaly
33.50406°
Mean motion
3.41162 °/min
Orbital period
105.52 mins
BSTAR
0.00077816
Loading maneuver chart data...
Computing Atmospheric mass density...

Documentation

Showing up to 5 results
|